Location: Kuppenheim
(48.8299°N, 8.2568°E)
Time: 01:05:35
(UTC+00:00)

IDEFIX/ARIANE 42P - Visible Passes

Search period start: 17 October 2021 00:00
Search period end: 27 October 2021 00:00
Orbit: 786 x 802 km, 98.4° (Epoch: 16 October)

Date Brightness Start Highest point End Pass type
(mag) Time Alt. Az. Time Alt. Az. Time Alt. Az.
17 Oct 4.7 01:48:37 10° NNE 01:50:32 22° NNE 01:50:32 22° NNE visible
17 Oct 4.2 03:28:52 10° N 03:31:20 21° NNW 03:31:20 21° NNW visible
18 Oct 5.2 01:20:29 10° NNE 01:21:40 16° NE 01:21:40 16° NE visible
18 Oct 4.1 03:00:03 10° N 03:02:28 25° NNW 03:02:28 25° NNW visible
19 Oct 5.6 00:52:44 10° NE 00:52:48 10° NE 00:52:48 10° NE visible
19 Oct 4.3 02:31:25 10° N 02:33:36 25° N 02:33:36 25° N visible
19 Oct 4.6 04:13:11 10° NNW 04:14:24 12° NW 04:14:24 12° NW visible
20 Oct 4.6 02:02:58 10° NNE 02:04:44 22° NNE 02:04:44 22° NNE visible
20 Oct 4.4 03:43:36 10° NNW 03:45:31 17° NNW 03:45:31 17° NNW visible
21 Oct 5.1 01:34:43 10° NNE 01:35:52 16° NNE 01:35:52 16° NNE visible
21 Oct 4.3 03:14:37 10° N 03:16:40 21° NNW 03:16:40 21° NNW visible
22 Oct 5.5 01:06:43 10° NE 01:07:00 11° NE 01:07:00 11° NE visible
22 Oct 4.4 02:45:54 10° N 02:47:48 22° N 02:47:48 22° N visible
23 Oct 4.7 02:17:22 10° NNE 02:18:56 20° NNE 02:18:56 20° NNE visible
23 Oct 4.6 03:58:29 10° NNW 03:59:44 13° NNW 03:59:44 13° NNW visible
24 Oct 5.1 01:49:00 10° NNE 01:50:04 16° NNE 01:50:04 16° NNE visible
24 Oct 4.5 03:29:16 10° N 03:30:52 17° NNW 03:30:52 17° NNW visible
25 Oct 5.4 01:20:52 10° NNE 01:21:13 12° NNE 01:21:13 12° NNE visible
25 Oct 4.5 03:00:26 10° N 03:02:00 19° N 03:02:00 19° N visible
26 Oct 4.7 02:31:48 10° N 02:33:08 18° N 02:33:08 18° N visible
26 Oct 4.7 04:13:40 10° NNW 04:13:56 11° NNW 04:13:56 11° NNW visible
